Weather History for Jaffrey, NH

Change the Weather History Date:

Tuesday, December 24, 2013

  Actual Average Record
Temperature  
Mean Temperature 27 °F -  
Max Temperature 33 °F 31 °F 53 °F (2003)
Min Temperature 19 °F 16 °F 7 °F (2000)
Degree Days  
Heating Degree Days 38    
Moisture  
Dew Point 15 °F    
Average Humidity 59    
Maximum Humidity 78    
Minimum Humidity 41    
Precipitation  
Precipitation 0.00 in - - ()
Sea Level Pressure  
Sea Level Pressure 30.13 in    
Wind  
Wind Speed 7 mph (NW)    
Max Wind Speed 10 mph    
Max Gust Speed 21 mph    
Visibility 10 miles    
Events Snow    
Averages and records for this station are not official NWS values.
T = Trace of Precipitation, MM = Missing Value Source: NWS Daily Summary

Daily Weather History Graph

Daily Weather History Graph

Search for Another Location

Airport:

Trip Planner

Search our weather history database for the weather conditions in past years. The results will help you decide how hot, cold, wet, or windy it might be!

Date:

Astronomy

Dec. 24, 2013 Rise Set
Actual Time 7:16 AM EST 4:18 PM EST
Civil Twilight 6:44 AM EST 4:51 PM EST
Nautical Twilight 6:08 AM EST 5:26 PM EST
Astronomical Twilight 5:34 AM EST 6:01 PM EST
Moon 11:34 PM EST (12/24) 11:00 AM EST (12/24)
Length of Visible Light 10h 06m
Length of Day
9h 01m
Waning Gibbous, 59% of the Moon is Illuminated
Dec 24
Waning Gibbous
Dec 25
Last Quarter
Jan 1
New
Jan 7
First Quarter
Jan 15
Full

Hourly Weather History & Observations

Time (EST) Temp. Windchill Dew Point Humidity Pressure Visibility Wind Dir Wind Speed Gust Speed Precip Events Conditions
12:34 AM 33.1 °F 27.7 °F 27.0 °F 78% 30.07 in 10.0 mi Variable 5.8 mph - N/A   Overcast
12:52 AM 33.1 °F 26.9 °F 26.1 °F 75% 30.12 in 10.0 mi Variable 6.9 mph - N/A   Mostly Cloudy
1:10 AM 32.0 °F 26.4 °F 25.0 °F 75% 30.07 in 10.0 mi Variable 5.8 mph 17.3 mph N/A   Mostly Cloudy
1:52 AM 32.0 °F 24.2 °F 23.0 °F 69% 30.13 in 10.0 mi NW 9.2 mph - N/A   Clear
2:52 AM 30.9 °F 27.5 °F 21.0 °F 67% 30.15 in 10.0 mi NNW 3.5 mph - N/A   Clear
3:52 AM 30.0 °F 22.4 °F 21.0 °F 69% 30.12 in 10.0 mi NNW 8.1 mph - N/A   Clear
4:52 AM 28.9 °F 22.8 °F 19.9 °F 69% 30.12 in 10.0 mi Variable 5.8 mph - N/A   Clear
5:52 AM 28.0 °F 20.8 °F 17.1 °F 63% 30.14 in 10.0 mi Variable 6.9 mph - N/A   Clear
6:52 AM 27.0 °F 19.5 °F 16.0 °F 63% 30.13 in 10.0 mi Variable 6.9 mph - N/A   Clear
7:52 AM 26.1 °F 16.2 °F 14.0 °F 60% 30.14 in 10.0 mi NNW 10.4 mph 20.7 mph N/A   Clear
8:52 AM 25.0 °F 17.1 °F 10.9 °F 55% 30.13 in 10.0 mi NW 6.9 mph - N/A   Clear
9:52 AM 28.0 °F 20.8 °F 10.9 °F 49% 30.14 in 10.0 mi NNW 6.9 mph - N/A   Clear
10:52 AM 27.0 °F - 10.0 °F 49% 30.14 in 10.0 mi North - - N/A   Clear
11:52 AM 28.0 °F 20.0 °F 10.9 °F 49% 30.11 in 10.0 mi NNW 8.1 mph - N/A   Clear
12:52 PM 28.9 °F 23.9 °F 10.9 °F 47% 30.08 in 10.0 mi Variable 4.6 mph - N/A   Mostly Cloudy
1:52 PM 30.0 °F 25.2 °F 10.9 °F 45% 30.06 in 10.0 mi Variable 4.6 mph - N/A   Mostly Cloudy
2:52 PM 30.0 °F 23.2 °F 9.0 °F 41% 30.07 in 10.0 mi NW 6.9 mph - N/A   Overcast
3:52 PM 28.9 °F 22.8 °F 9.0 °F 43% 30.09 in 10.0 mi Variable 5.8 mph - N/A   Overcast
4:52 PM 27.0 °F 19.5 °F 10.9 °F 51% 30.13 in 10.0 mi Variable 6.9 mph - N/A   Overcast
5:52 PM 25.0 °F 17.1 °F 14.0 °F 63% 30.14 in 9.0 mi WNW 6.9 mph - 0.00 in Snow Light Snow
6:52 PM 26.1 °F 18.4 °F 10.9 °F 53% 30.15 in 10.0 mi WNW 6.9 mph - 0.00 in   Overcast
7:52 PM 25.0 °F 19.3 °F 10.9 °F 55% 30.18 in 10.0 mi WNW 4.6 mph - N/A   Overcast
8:52 PM 23.0 °F 13.9 °F 10.0 °F 58% 30.19 in 10.0 mi WNW 8.1 mph 16.1 mph N/A   Clear
9:52 PM 21.9 °F 12.5 °F 12.9 °F 68% 30.19 in 10.0 mi West 8.1 mph - 0.00 in   Partly Cloudy
10:52 PM 21.0 °F 13.4 °F 8.1 °F 57% 30.20 in 10.0 mi West 5.8 mph - N/A   Mostly Cloudy
11:52 PM 19.0 °F 8.2 °F 8.1 °F 62% 30.22 in 5.0 mi WNW 9.2 mph 20.7 mph 0.00 in Snow Light Snow